SCP
0 0 0 0 0 0 0 0 0 0 0 0 0 0 0 0 0 0 0 0 0 0 0 0 0 0 0 0 1 1 1 1 1 1 1 0 0 1 1 0 0 0 0
0 0 0 0 0 0 0 0 0 0 0 0 0 0 0 0 0 0 0 0 0 0 0 0 0 0 0 0 0 1 1 1 1 1 1 1 1 1 1 1 0 0 0
0 0 0 0 0 0 0 0 0 0 0 0 0 0 0 0 0 0 0 0 0 0 0 0 0 0 0 0 0 0 0 1 1 1 1 1 1 1 1 1 1 0 0
0 0 0 0 0 0 0 0 0 0 0 0 0 0 0 0 0 0 0 0 0 0 0 0 0 0 0 0 0 0 0 0 0 1 1 1 1 1 1 1 1 1 0
0 0 0 0 0 0 0 0 0 0 0 0 0 0 0 0 0 0 0 0 0 0 0 0 0 0 0 0 0 0 0 0 0 1 1 1 1 1 1 1 1 1 1
0 0 0 0 0 0 0 0 0 0 0 0 0 0 0 0 0 0 0 0 0 0 0 0 0 0 0 0 0 0 0 0 0 0 1 1 1 1 1 1 1 1 1
0 0 0 0 0 0 0 0 0 0 0 0 0 0 0 0 0 0 0 0 0 0 0 0 0 0 0 0 0 0 0 0 0 0 1 1 1 1 1 1 1 1 1
0 0 0 0 0 0 0 0 0 0 0 0 0 0 0 0 0 0 0 0 0 0 0 0 0 0 0 0 0 0 0 0 0 0 1 1 1 1 1 1 1 1 1
0 0 0 0 0 0 0 0 0 0 0 0 0 0 0 0 0 0 0 0 0 0 0 0 0 0 0 0 0 0 0 0 0 0 0 1 1 1 1 1 1 1 1
0 0 0 0 0 0 0 0 0 0 0 0 0 0 0 0 0 0 0 0 0 0 0 0 0 0 0 0 0 0 0 0 0 0 0 1 1 1 1 1 1 1 1
0 0 0 0 0 0 0 0 0 0 0 0 0 0 0 0 0 0 0 0 0 0 0 0 0 0 0 0 0 0 0 0 0 0 0 0 1 1 1 1 1 1 1
0 0 0 0 0 0 0 0 0 0 0 0 0 0 0 0 0 0 0 0 0 0 0 0 0 0 0 0 0 0 0 0 0 0 0 0 0 1 1 1 1 1 1
0 0 0 0 0 0 0 0 0 0 0 0 0 0 0 0 0 0 0 0 0 0 0 0 0 0 0 0 0 0 0 0 0 0 0 0 0 0 1 1 1 1 1
0 0 0 0 0 0 0 0 0 0 0 0 0 0 0 0 0 0 0 0 0 0 0 0 0 0 0 0 0 0 0 0 0 0 0 0 0 0 0 0 1 1 1
0 0 0 0 0 0 0 0 0 0 0 0 0 0 0 0 0 0 0 0 0 0 0 0 0 0 0 0 0 0 0 0 0 0 0 0 0 0 0 0 0 0 0
0 0 0 0 0 0 0 0 0 0 0 0 0 0 0 0 0 0 0 0 0 0 0 0 0 0 0 0 0 0 0 0 0 0 0 0 0 0 0 0 0 0 0
0 0 0 0 0 0 0 0 0 0 0 0 0 0 0 0 0 0 0 0 0 0 0 0 0 0 0 0 0 0 0 0 0 0 0 0 0 0 0 0 0 0 0
0 0 0 0 0 0 0 0 0 0 0 0 0 0 0 0 0 0 0 0 0 0 0 0 0 0 0 0 0 0 0 0 0 0 0 0 0 0 0 0 0 0 0
0 0 0 0 0 0 0 0 0 0 0 0 0 0 0 0 0 0 0 0 0 0 0 0 0 0 0 0 0 0 0 0 0 0 0 0 0 0 0 0 0 0 0
0 0 0 0 0 0 0 0 0 0 0 0 0 0 0 0 0 0 0 0 0 0 0 0 0 0 0 0 0 0 0 0 0 0 0 0 0 0 0 0 0 0 0
0 0 0 0 0 0 0 0 0 0 0 0 0 0 0 0 0 0 0 0 0 0 0 0 0 0 0 0 0 0 0 0 0 0 0 0 0 0 0 0 0 0 0
0 0 0 0 0 0 0 0 0 0 0 0 0 0 0 0 0 0 0 0 0 0 0 0 0 0 0 0 0 0 0 0 0 0 0 0 0 0 0 0 0 0 0
0 0 0 0 0 0 0 0 0 0 0 0 0 0 0 0 0 0 0 0 0 0 0 0 0 0 0 0 0 0 0 0 0 0 0 0 0 0 0 0 0 0 0
0 0 0 0 0 0 0 0 0 0 0 0 0 0 0 0 0 0 0 0 0 0 0 0 0 0 0 0 0 0 0 0 0 0 0 0 0 0 0 0 0 0 0
0 0 0 0 0 0 0 0 0 0 0 0 0 0 0 0 0 0 0 0 0 0 0 0 0 0 0 0 0 0 0 0 0 0 0 0 0 0 0 0 0 0 0
0 0 0 0 0 0 0 0 0 0 0 0 0 0 0 0 0 0 0 0 0 0 0 0 0 0 0 0 0 0 0 0 0 0 0 0 0 0 0 0 0 0 0
Wind_Speed
3 2 1 1 2 2 2 2 3 4 4 5 5 6 6 7 7 6 6 17 20 21 22 24 25 27 28 29 30 30 31 32 32 33 33 33 33 33 33 32 31 30 29
4 3 2 1 0 1 1 2 3 3 4 4 6 6 7 7 7 7 6 10 17 19 21 23 25 27 28 29 30 31 31 32 33 34 34 34 34 34 34 33 32 31 30
5 4 3 2 2 2 3 2 4 3 4 5 6 7 7 7 7 8 7 6 7 14 20 22 24 26 28 29 31 31 32 33 33 34 34 35 35 35 34 34 33 32 31
6 5 4 4 3 3 3 3 3 3 4 4 5 6 6 6 8 8 7 6 5 6 12 21 24 26 28 30 31 32 32 33 33 34 34 35 35 35 35 34 34 33 32
7 5 5 4 4 3 3 4 3 3 4 5 6 6 6 6 8 9 7 7 6 6 6 14 22 25 27 29 31 32 33 33 34 34 34 35 35 35 35 35 34 34 33
7 6 5 5 4 3 4 4 4 4 4 5 7 7 7 8 7 7 7 6 5 8 8 9 9 15 25 28 30 32 33 34 34 34 35 35 35 36 35 35 35 34 33
8 7 5 5 5 5 5 5 3 4 4 3 4 5 7 8 8 6 5 5 7 8 7 8 7 8 10 23 28 31 32 34 34 35 35 35 35 35 35 34 34 34 33
9 8 7 6 6 5 5 5 5 3 3 2 2 4 5 4 3 7 6 6 7 6 7 11 9 11 10 8 17 30 32 33 34 35 35 35 35 35 34 34 34 33 32
9 8 8 7 6 6 6 6 6 5 4 3 3 2 3 5 7 5 6 7 7 6 7 7 11 11 12 10 12 21 30 32 34 35 35 35 34 33 33 33 33 32 32
9 9 8 8 7 6 6 7 6 5 5 4 3 5 6 5 5 8 5 4 7 8 8 10 11 11 12 11 15 25 30 32 34 34 34 34 34 33 32 31 31 31 30
9 9 9 8 7 7 7 7 6 6 5 5 5 4 5 6 7 8 13 11 7 6 7 9 9 10 12 12 11 19 30 32 33 33 33 33 33 32 31 29 28 28 27
7 9 9 8 8 7 8 8 7 7 7 7 6 5 5 6 6 7 10 15 16 9 7 7 9 10 11 11 15 26 30 31 32 32 33 32 31 30 29 28 26 24 23
8 10 10 8 8 8 8 7 7 8 8 8 8 7 7 9 8 9 11 15 18 15 8 7 9 9 11 9 11 26 27 30 31 31 32 31 30 30 29 27 27 24 22
10 9 11 9 9 9 8 7 7 8 7 8 10 9 8 9 8 10 11 13 17 18 12 8 6 8 9 9 15 27 17 28 30 31 31 31 30 29 28 27 26 24 22
8 10 10 10 9 9 9 8 7 8 7 8 9 10 9 9 9 9 10 11 13 18 19 10 6 7 8 8 17 14 12 23 30 31 31 30 29 29 28 27 26 24 22
10 10 11 10 10 9 9 8 8 8 9 9 8 10 11 10 9 10 11 11 12 15 20 11 9 9 11 13 20 15 13 28 30 30 30 30 29 28 28 27 26 24 22
12 12 11 11 10 10 9 9 9 8 10 10 10 11 13 12 11 11 11 11 12 13 18 16 11 11 12 14 14 12 12 13 14 27 29 29 29 28 27 27 26 25 23
13 13 11 11 11 10 9 10 10 10 10 11 12 12 14 12 13 12 11 13 12 13 16 20 14 12 14 14 13 13 13 13 11 22 28 29 29 28 27 27 26 25 23
13 12 12 11 11 10 9 10 10 10 11 12 12 13 14 13 14 12 13 13 12 13 13 16 16 13 12 11 13 13 14 11 13 17 24 25 26 27 27 27 26 25 24
14 13 12 11 10 9 10 10 9 10 11 12 13 13 14 14 14 14 13 14 13 14 14 14 15 14 12 11 10 11 12 9 11 12 16 19 22 26 26 26 26 25 24
14 12 11 11 10 8 9 9 10 11 12 13 13 13 13 16 19 17 14 12 11 12 12 13 14 13 11 10 10 10 12 10 10 9 10 11 11 10 12 17 22 23 23
12 11 12 11 10 9 14 19 15 11 11 12 12 10 11 13 17 23 26 26 23 17 14 12 12 13 13 12 11 11 11 12 12 6 8 10 8 9 9 9 18 23 24
12 12 12 11 11 13 18 20 21 12 9 8 9 8 9 10 16 10 19 25 23 24 23 16 14 14 15 13 14 15 14 14 13 8 8 12 9 10 9 12 23 24 25
12 12 12 12 11 12 18 19 19 12 7 7 8 9 10 10 11 15 14 14 10 10 15 12 12 14 14 13 13 14 13 13 12 10 10 11 8 9 10 10 20 25 25
12 12 11 12 11 12 17 18 17 6 7 8 8 9 10 10 18 24 16 11 9 10 16 20 21 21 25 24 19 10 8 9 10 8 6 7 7 8 9 10 14 23 25
12 12 11 11 11 11 14 17 16 6 7 7 7 8 13 15 20 23 13 8 10 12 9 9 13 16 14 15 19 10 7 8 8 6 5 5 5 5 6 5 6 8 13
Wind_Direction
155 144 114 65 34 21 8 344 333 323 314 305 296 295 292 289 286 282 293 310 317 319 319 319 318 318 317 315 313 312 309 306 302 297 292 288 284 282 279 278 277 277 276
162 158 153 149 247 267 266 274 279 283 280 280 280 279 279 279 276 276 277 297 309 316 318 317 317 316 313 312 312 311 309 305 301 297 292 288 283 280 277 275 273 273 272
169 166 171 195 221 231 246 258 270 263 262 267 270 274 272 266 270 274 279 274 286 307 314 316 315 312 311 311 311 309 307 304 300 296 291 286 283 278 275 272 270 269 268
175 170 181 205 212 213 228 245 252 256 260 266 268 270 269 267 270 273 273 272 273 286 302 310 311 312 312 310 308 306 305 303 299 295 291 285 282 278 273 270 268 266 264
181 176 190 206 204 208 223 246 245 232 256 267 269 264 256 258 268 275 273 273 272 277 281 300 307 310 309 306 305 305 304 302 299 294 290 286 281 279 273 269 266 263 261
186 182 193 206 201 206 223 230 247 246 242 258 277 278 266 261 260 259 264 271 272 279 284 285 292 300 303 305 305 304 302 300 297 294 290 286 282 278 273 268 264 261 258
189 186 195 199 199 207 219 221 232 258 259 248 270 279 267 254 248 249 249 258 268 273 276 280 282 284 292 298 302 301 299 298 297 294 291 287 282 278 273 268 265 260 256
192 194 194 199 201 208 219 222 213 234 256 255 267 306 312 297 255 247 244 256 263 267 275 284 282 285 284 284 289 296 298 296 295 294 292 289 284 278 273 268 264 260 254
193 194 193 196 201 202 215 219 210 215 242 250 205 228 288 294 307 260 236 248 254 259 268 276 278 280 285 288 288 292 291 292 293 293 292 291 287 281 273 268 265 261 254
193 195 196 197 202 205 214 222 217 210 219 247 233 218 221 237 285 301 277 245 247 261 264 278 282 281 281 281 282 289 292 292 292 293 293 293 290 286 280 270 266 261 254
197 197 198 198 204 209 214 219 222 218 216 231 232 228 237 243 235 262 290 293 275 249 255 262 271 275 278 278 277 281 287 291 294 295 296 296 293 289 286 281 273 264 257
200 202 202 202 206 210 216 220 222 224 227 232 239 234 233 239 246 248 272 290 293 282 256 258 266 270 272 274 277 286 291 293 295 297 298 298 297 294 291 290 287 277 265
202 206 203 203 207 213 218 219 221 228 228 232 237 241 242 244 249 255 267 281 288 289 270 253 253 262 270 271 277 286 289 293 295 297 298 298 298 297 293 292 292 289 280
202 194 199 204 208 211 220 218 224 230 230 234 244 243 247 251 249 251 258 275 287 291 284 266 250 253 266 269 274 285 288 291 293 294 295 297 296 294 291 289 288 288 286
194 194 196 202 209 214 218 219 230 233 234 239 245 248 249 255 252 252 254 256 270 288 292 289 278 259 266 269 275 279 275 284 289 291 293 294 294 291 289 288 286 283 281
193 189 196 203 209 214 218 222 232 235 238 245 246 250 253 255 256 255 256 256 254 264 279 285 281 276 275 278 281 281 279 285 290 292 291 290 290 288 286 286 284 279 274
194 198 199 203 210 215 218 223 233 235 241 251 252 253 257 258 261 261 260 259 259 260 272 281 277 278 274 274 277 275 273 273 276 282 285 285 285 284 282 281 279 276 272
197 199 199 204 211 216 218 223 236 242 242 251 256 257 261 263 263 264 263 264 264 262 268 279 281 278 273 272 272 272 275 275 271 278 282 282 281 280 277 275 274 272 269
197 197 198 205 211 215 220 226 234 242 245 250 254 257 261 263 266 265 265 267 267 266 264 271 278 277 274 271 272 272 271 269 271 276 280 280 280 278 275 271 269 267 266
196 196 199 205 209 214 223 230 234 242 248 252 254 255 258 259 263 266 268 266 266 266 265 267 272 274 273 269 267 274 276 268 270 274 276 276 277 276 273 269 265 263 262
197 194 196 203 208 213 222 227 235 242 246 253 256 255 256 261 265 275 280 277 271 270 271 270 274 277 278 279 276 275 276 279 270 264 268 269 270 268 271 270 267 263 260
193 188 195 200 209 218 235 244 247 239 242 249 258 260 258 270 278 284 290 293 291 288 288 285 286 285 286 283 281 276 277 278 277 251 254 265 262 264 260 255 259 259 256
189 190 196 201 214 226 238 250 259 260 251 250 254 262 269 270 286 282 286 289 289 289 293 294 291 287 287 283 279 274 267 263 265 261 263 270 262 264 262 259 257 252 249
190 192 197 203 214 229 237 249 259 263 258 252 250 254 264 270 274 282 278 280 271 272 283 284 273 276 280 281 274 271 270 267 263 258 251 263 262 260 262 254 254 248 244
191 194 196 199 210 228 236 246 257 253 258 256 253 257 264 267 282 294 298 294 288 284 296 298 299 303 304 305 302 295 284 276 275 270 242 252 265 267 261 250 245 242 238
194 192 197 200 208 219 230 241 251 246 256 263 261 258 273 284 293 301 304 301 299 296 294 296 300 301 297 294 298 293 283 276 276 277 243 238 256 264 270 245 229 227 228